Wind_Speed
59 54 57 52 49 44 41 43 42 31 31 27 27 27 21 16 15 15 15 12 12 10 10 9 8 8 8 7 6 6 7 8 8 9 11 13 16 18 19 20 20 20 20 18 18 18 18 16 13
66 62 57 59 51 49 45 44 43 38 31 31 28 26 21 21 17 17 15 11 12 12 10 11 8 7 7 9 9 9 9 9 8 8 9 10 10 11 12 13 13 14 13 14 12 9 8 8 8
71 67 61 62 58 55 44 47 47 40 36 33 29 28 24 23 20 20 17 13 11 12 10 10 8 7 8 8 9 10 10 9 9 9 9 9 9 11 11 12 13 13 13 12 10 10 10 10 10
71 73 64 62 62 55 48 52 48 42 39 36 33 30 30 27 25 23 18 15 12 11 12 12 8 6 6 7 7 8 10 11 11 10 10 10 11 12 12 13 13 13 13 12 12 13 13 14 14
76 74 72 61 65 58 52 57 51 45 43 40 36 33 32 31 26 26 20 19 14 12 12 12 10 8 7 6 6 7 8 10 12 12 12 12 12 12 13 13 13 14 14 14 15 15 15 15 16
66 76 71 65 62 61 58 59 52 46 45 42 39 35 33 34 30 28 24 22 17 15 12 13 15 13 9 8 6 7 8 9 11 12 13 13 13 13 14 14 14 15 15 15 16 17 17 18 21
80 69 71 70 66 61 64 63 61 52 50 47 40 38 36 36 33 31 28 25 21 18 16 15 14 16 15 12 10 9 9 10 10 11 12 13 13 14 15 15 16 16 16 18 18 19 20 21 22
82 77 72 73 77 65 63 61 60 52 52 50 41 41 39 35 37 34 32 29 26 22 19 17 16 19 18 17 14 12 12 12 12 13 13 12 12 13 15 16 17 16 17 18 18 20 21 23 24
89 85 73 75 78 76 74 68 61 57 51 47 48 43 40 38 42 36 33 31 29 25 23 18 18 20 20 21 18 17 16 17 15 15 16 16 14 15 17 19 20 20 21 22 22 22 24 24 24
93 82 79 80 81 79 74 70 63 60 55 55 52 48 43 43 45 41 36 34 32 30 28 22 19 21 23 24 23 22 20 20 19 18 19 19 19 21 21 23 25 25 26 27 26 28 27 26 27
76 93 90 82 87 77 77 72 67 66 63 57 56 54 47 46 47 43 39 38 36 35 30 25 22 23 24 24 23 22 18 19 21 21 22 22 22 23 27 30 29 28 28 29 29 29 30 30 32
81 83 96 89 85 82 83 75 71 64 62 61 50 51 51 50 50 45 41 38 37 36 33 28 25 25 26 27 25 25 25 24 23 24 24 26 28 28 31 34 36 36 35 35 34 34 36 36 39
79 80 95 98 91 85 82 80 72 68 64 63 57 55 54 45 48 48 43 40 38 39 35 31 29 28 27 26 27 28 28 26 26 25 28 27 28 30 33 35 37 37 37 37 39 41 41 41 44
79 82 89 101 94 90 87 80 75 70 68 60 61 54 54 49 44 49 47 43 40 40 37 33 31 31 31 28 29 30 31 29 30 28 29 31 31 33 34 34 34 39 43 42 44 45 47 49 51
80 85 87 103 95 93 93 87 75 74 67 62 59 53 49 48 51 51 47 45 43 41 38 35 30 29 30 28 30 34 37 37 35 33 32 32 34 35 36 36 39 38 37 38 40 44 46 48 53
82 89 86 103 97 94 94 86 82 78 73 69 64 59 54 52 52 52 49 45 47 44 39 36 33 29 31 33 34 36 37 35 34 35 34 34 33 36 34 35 38 39 40 42 43 43 49 51 51
84 89 88 101 105 96 93 93 89 85 81 73 69 62 58 58 54 53 52 48 48 48 45 40 35 34 33 34 34 36 38 39 39 38 37 36 36 38 40 41 43 44 44 44 48 53 55 58 61
83 91 92 104 106 102 92 93 92 89 86 84 78 64 61 59 59 52 51 51 47 48 47 46 41 36 32 38 38 33 34 37 39 38 38 38 39 40 44 45 44 41 44 48 51 56 59 64 67
86 96 94 106 109 105 89 94 97 91 87 81 73 67 63 62 60 56 51 50 48 48 50 48 45 41 39 39 44 43 42 40 41 41 41 43 45 46 46 45 47 52 52 54 57 59 63 66 68
90 94 97 108 109 107 98 82 95 97 89 82 80 70 69 64 58 59 57 53 48 46 51 54 51 48 44 42 43 43 41 45 48 48 48 47 50 52 53 52 51 52 55 60 66 68 70 71 69
93 94 96 105 108 104 104 102 85 94 93 91 78 78 77 66 61 60 61 59 52 51 51 51 49 49 47 47 44 46 48 50 53 51 52 53 56 57 57 58 58 62 66 72 72 71 71 69 72
91 86 93 108 107 104 103 106 97 87 91 89 82 78 73 67 63 62 60 59 58 59 54 56 52 52 53 53 50 49 54 54 57 59 59 60 63 61 58 62 68 69 71 75 76 74 73 75 75
87 88 92 109 106 102 103 102 99 93 90 89 83 83 80 75 66 62 63 59 63 61 59 53 53 54 57 57 56 54 55 56 58 65 67 67 66 68 72 73 73 71 78 81 78 79 79 82 82
89 90 96 107 105 101 103 100 99 90 85 89 86 88 85 79 74 73 66 61 62 63 61 60 55 53 57 56 52 52 59 61 63 66 69 71 72 77 78 79 79 83 87 86 83 84 86 87 85
85 84 84 103 108 101 100 97 96 93 84 81 80 87 82 79 81 80 77 72 70 67 62 61 59 59 62 61 62 64 63 64 67 69 73 76 79 82 83 82 85 87 89 88 88 91 92 91 92
91 88 79 95 104 103 99 100 94 97 93 80 79 72 74 79 76 77 76 70 70 76 70 70 67 67 66 67 67 67 69 70 71 75 78 80 84 84 86 88 88 91 91 92 94 97 98 98 100
95 84 86 93 99 105 101 100 94 95 93 86 82 76 72 71 72 72 71 70 64 72 75 71 74 71 71 73 76 76 76 75 77 78 80 83 88 88 87 91 92 92 94 98 100 104 105 105 108
99 89 89 93 94 98 100 101 102 91 85 87 88 81 77 74 72 70 70 70 64 65 66 72 76 75 76 78 79 82 83 82 78 84 87 88 88 89 94 94 95 96 99 102 106 107 107 112 114
96 85 89 93 89 97 98 100 98 98 93 85 81 82 77 72 72 72 70 71 73 70 68 68 68 75 78 78 80 83 78 80 87 91 94 95 97 99 98 97 99 103 104 109 111 111 112 116 120
94 90 86 89 89 88 93 95 97 97 95 91 82 74 71 69 66 66 70 73 76 77 77 79 78 76 74 75 74 80 87 93 94 96 99 99 100 101 101 104 105 109 114 117 117 119 119 121 124
Wind_Direction
235 240 236 234 242 240 234 240 232 233 235 240 243 254 244 250 259 268 286 300 299 302 299 295 280 257 248 248 248 241 243 245 250 258 262 267 266 264 265 266 267 272 277 276 275 272 271 268 266
236 240 236 232 244 240 241 231 233 235 234 234 243 249 245 260 254 254 269 286 290 299 283 293 282 262 256 251 238 234 246 252 263 263 262 262 268 271 268 270 273 269 272 273 266 261 261 257 255
234 234 237 234 242 243 241 232 232 237 233 229 234 245 248 248 244 248 254 268 284 298 273 288 283 275 264 256 254 248 242 250 262 270 270 271 276 274 269 272 275 273 266 255 253 257 259 264 273
233 232 236 235 238 236 234 226 226 235 230 230 228 238 248 243 240 244 247 254 269 286 272 284 273 281 277 269 262 257 254 249 251 260 270 277 273 275 279 281 279 268 267 263 264 267 270 273 277
232 232 234 234 231 235 224 228 226 238 227 229 226 233 236 235 236 239 240 245 254 266 263 268 274 269 291 290 280 264 260 260 259 259 262 270 277 283 285 284 281 278 273 273 277 279 280 283 288
220 234 232 233 235 228 223 226 227 230 232 231 232 228 230 233 232 235 235 240 242 254 249 258 272 262 259 277 287 289 280 273 268 264 265 267 274 282 284 284 283 284 284 287 285 285 285 286 289
220 228 229 230 233 220 226 226 231 234 232 228 229 224 228 235 234 234 237 238 238 242 244 250 263 266 263 262 265 274 289 288 283 282 272 267 268 271 273 276 280 283 286 285 282 285 286 289 292
222 217 228 222 230 225 222 225 232 229 224 230 223 226 230 231 236 239 238 233 236 238 244 246 253 260 263 265 268 271 274 283 287 285 275 267 265 271 277 278 280 281 280 279 283 285 286 286 288
219 219 220 224 227 227 225 226 228 221 220 228 224 223 231 235 238 237 240 233 229 232 239 245 251 255 265 259 262 266 274 270 268 275 280 275 268 273 278 273 272 275 278 281 279 281 283 284 285
218 219 215 220 220 224 226 226 226 213 216 231 231 223 227 236 237 240 235 234 227 231 234 241 247 255 259 264 269 269 268 268 268 268 274 273 275 276 277 278 276 274 274 275 274 279 283 282 284
218 216 217 220 220 222 224 228 221 221 220 225 229 226 227 236 237 237 232 234 228 229 232 236 245 251 259 263 266 267 264 265 266 272 274 277 283 282 281 279 277 274 276 276 274 275 277 281 278
222 216 215 216 219 220 223 227 219 217 218 219 220 223 227 230 230 234 231 235 233 232 235 237 244 248 256 262 260 262 269 273 272 279 280 283 280 281 286 281 280 278 276 276 276 276 277 279 281
224 216 214 216 217 219 224 224 216 215 221 219 217 227 225 229 230 230 230 231 233 232 234 240 242 247 251 254 262 264 266 266 274 279 283 281 282 281 283 288 284 280 278 279 280 282 279 281 282
224 216 212 214 216 218 219 219 213 211 215 215 220 221 221 226 230 231 230 231 234 237 239 242 244 245 253 253 254 260 263 264 271 277 279 278 282 286 287 290 291 281 278 281 281 281 281 282 281
223 219 211 210 214 216 219 215 220 211 211 216 214 217 218 228 234 234 238 233 235 238 241 239 244 247 250 251 256 259 261 265 272 271 271 274 279 281 284 285 285 286 287 288 290 291 292 290 287
220 218 207 208 211 215 220 215 215 211 212 215 215 217 221 228 234 232 238 235 234 238 239 242 244 244 251 254 258 256 261 265 267 271 273 277 277 284 284 284 286 287 287 290 290 291 293 292 294
215 215 207 206 210 213 218 217 213 214 216 217 219 221 222 226 230 229 232 236 238 239 240 243 243 243 245 253 252 256 258 265 266 269 273 276 277 281 281 284 285 285 285 285 288 291 295 296 297
210 212 207 203 208 211 214 216 213 215 217 222 220 221 221 222 227 227 236 238 238 242 242 240 242 233 240 245 250 254 258 265 269 269 272 277 281 280 281 281 284 287 288 290 293 293 295 298 299
209 211 206 202 207 210 209 216 216 215 214 221 222 219 220 221 227 231 235 238 238 244 242 239 240 242 245 248 253 267 269 268 268 267 269 275 278 281 281 285 286 288 293 291 291 293 296 297 297
206 207 205 201 204 208 208 209 217 215 216 219 221 219 222 223 224 233 235 237 239 245 248 245 243 243 245 253 258 262 261 267 270 274 276 277 283 284 281 284 288 291 289 292 292 291 296 298 298
204 203 203 199 202 206 210 209 210 218 218 221 222 221 221 224 228 233 235 237 243 245 244 251 252 253 254 253 255 258 264 269 273 272 274 279 283 286 285 285 290 293 294 296 300 300 298 301 301
202 203 201 200 200 204 210 213 211 215 218 219 220 219 221 226 227 232 236 240 243 245 249 248 249 252 259 262 259 258 265 267 268 270 276 280 284 285 283 285 290 296 299 300 299 298 298 301 299
196 200 202 201 200 205 208 213 213 215 220 219 220 225 226 229 226 230 237 238 244 244 243 247 251 253 255 258 262 264 269 270 268 272 276 279 281 284 287 288 290 293 295 301 298 301 300 301 300
193 198 201 202 201 206 208 212 214 217 217 224 221 224 228 232 233 235 239 240 245 248 250 249 255 255 254 257 261 263 267 270 271 273 278 277 281 286 288 290 290 292 295 297 298 300 301 301 301
185 192 201 204 202 207 207 209 212 212 213 216 220 225 229 233 234 237 237 241 243 246 251 251 252 257 261 260 259 260 265 268 274 277 278 278 281 285 287 291 290 293 295 297 300 300 302 302 300
185 193 194 203 206 207 206 208 210 216 215 211 214 220 225 229 233 236 238 241 247 248 252 255 257 261 261 260 267 269 272 275 274 277 279 279 281 285 286 289 290 293 296 298 299 300 300 299 299
188 195 196 201 206 207 208 209 208 211 216 213 214 215 220 229 231 234 238 241 244 250 252 254 257 260 261 261 263 267 271 275 278 281 281 283 284 286 288 291 292 294 296 297 298 298 298 299 300
191 195 194 200 205 208 208 210 211 212 214 220 222 223 225 229 233 236 238 241 243 250 253 257 260 261 263 267 268 270 273 277 275 278 281 285 285 287 290 291 294 294 295 296 297 297 297 298 301
189 191 195 200 201 208 209 211 212 215 217 217 218 222 228 231 232 233 235 238 239 244 248 252 260 264 266 268 270 273 274 273 275 280 284 285 288 290 291 291 292 293 294 295 295 295 298 300 301
193 194 195 200 201 207 210 212 213 216 216 219 219 220 221 223 228 230 231 235 239 248 250 254 259 263 264 269 270 270 273 275 279 281 284 285 287 289 290 290 292 292 294 296 295 296 298 299 298
Height
10798 10803 10809 10814 10820 10823 10828 10833 10836 10838 10841 10845 10846 10848 10850 10851 10851 10851 10851 10850 10849 10848 10847 10845 10843 10842 10841 10840 10840 10839 10839 10839 10838 10839 10839 10839 10839 10838 10838 10839 10838 10838 10837 10836 10835 10834 10833 10832 10832
10788 10793 10800 10804 10812 10815 10821 10827 10831 10832 10836 10839 10841 10844 10846 10848 10848 10848 10849 10848 10848 10847 10845 10844 10842 10841 10840 10840 10839 10838 10838 10838 10838 10838 10838 10837 10837 10837 10837 10836 10836 10835 10834 10834 10833 10832 10832 10831 10830
10778 10782 10790 10797 10803 10805 10812 10820 10825 10827 10831 10834 10837 10840 10842 10844 10844 10845 10845 10846 10846 10845 10844 10842 10841 10841 10840 10839 10838 10837 10837 10837 10837 10836 10836 10836 10836 10835 10834 10834 10833 10833 10833 10833 10832 10831 10831 10830 10829
10764 10771 10780 10790 10793 10794 10806 10813 10817 10821 10827 10827 10831 10836 10837 10840 10841 10840 10842 10843 10843 10843 10842 10842 10840 10839 10838 10837 10836 10835 10835 10835 10834 10834 10834 10834 10833 10833 10833 10832 10832 10832 10831 10830 10830 10830 10829 10828 10828
10750 10758 10770 10780 10781 10787 10799 10804 10809 10815 10820 10821 10825 10829 10833 10834 10837 10836 10838 10839 10840 10840 10840 10840 10840 10839 10838 10836 10835 10834 10833 10833 10833 10832 10832 10832 10832 10831 10831 10831 10831 10830 10829 10829 10828 10828 10827 10827 10826
10739 10746 10759 10769 10770 10778 10791 10796 10801 10808 10813 10816 10820 10825 10828 10828 10832 10832 10834 10835 10836 10837 10837 10837 10837 10837 10836 10835 10834 10833 10833 10832 10832 10831 10831 10830 10830 10830 10830 10829 10829 10828 10828 10827 10826 10826 10825 10824 10823
10729 10735 10749 10755 10757 10772 10780 10787 10793 10801 10806 10810 10814 10818 10821 10823 10825 10829 10829 10831 10833 10834 10834 10834 10834 10834 10834 10833 10832 10832 10832 10831 10830 10830 10829 10829 10829 10828 10828 10827 10826 10826 10825 10825 10823 10822 10821 10820 10818
10713 10727 10735 10745 10747 10762 10769 10778 10782 10790 10797 10802 10807 10811 10814 10819 10819 10823 10824 10826 10828 10830 10830 10830 10830 10831 10831 10831 10831 10830 10830 10830 10829 10829 10828 10827 10826 10826 10826 10825 10825 10823 10822 10821 10819 10818 10817 10816 10814
10697 10714 10726 10732 10734 10745 10755 10764 10772 10781 10789 10792 10799 10804 10810 10813 10813 10817 10819 10821 10823 10825 10826 10826 10827 10828 10828 10828 10828 10828 10828 10827 10827 10826 10826 10825 10824 10824 10823 10822 10821 10820 10819 10817 10815 10813 10812 10810 10808
10679 10701 10715 10713 10720 10731 10745 10753 10761 10772 10779 10784 10791 10797 10802 10805 10806 10810 10813 10815 10818 10820 10821 10822 10822 10824 10824 10825 10825 10825 10824 10824 10823 10823 10823 10822 10821 10821 10820 10819 10817 10815 10814 10812 10810 10809 10807 10805 10803
10666 10689 10697 10700 10709 10720 10735 10742 10753 10763 10771 10775 10782 10790 10796 10798 10800 10804 10806 10809 10811 10813 10815 10816 10817 10818 10820 10821 10821 10821 10821 10820 10820 10820 10819 10818 10818 10817 10816 10814 10812 10811 10810 10807 10805 10803 10800 10799 10797
10648 10663 10679 10686 10698 10708 10721 10729 10743 10754 10760 10763 10773 10782 10787 10789 10793 10797 10799 10803 10806 10807 10810 10811 10812 10813 10815 10817 10817 10818 10817 10816 10816 10816 10815 10814 10813 10812 10811 10808 10807 10806 10804 10801 10800 10797 10795 10794 10791
10629 10642 10659 10669 10683 10696 10706 10716 10730 10743 10749 10758 10766 10773 10778 10782 10786 10790 10793 10796 10798 10800 10803 10806 10807 10808 10809 10811 10812 10813 10812 10812 10811 10811 10810 10808 10807 10806 10804 10802 10801 10799 10797 10795 10793 10791 10789 10787 10784
10612 10623 10639 10653 10672 10681 10693 10703 10719 10730 10740 10748 10756 10764 10770 10774 10780 10783 10784 10789 10793 10794 10797 10799 10801 10802 10805 10806 10807 10807 10807 10806 10805 10805 10803 10802 10801 10800 10798 10796 10794 10792 10789 10788 10785 10783 10781 10777 10775
10591 10603 10619 10641 10658 10669 10679 10689 10714 10722 10730 10739 10747 10754 10761 10766 10772 10774 10779 10783 10786 10788 10790 10793 10795 10797 10799 10800 10801 10801 10800 10800 10799 10798 10797 10796 10795 10793 10790 10788 10787 10785 10782 10780 10778 10775 10771 10768 10766
10570 10583 10606 10626 10641 10656 10661 10687 10699 10712 10720 10728 10738 10744 10751 10756 10763 10769 10772 10776 10778 10781 10784 10787 10789 10791 10793 10794 10794 10792 10793 10793 10792 10792 10790 10789 10788 10786 10783 10780 10778 10777 10775 10773 10770 10766 10763 10758 10756
10550 10573 10595 10607 10625 10638 10648 10671 10682 10697 10709 10716 10726 10733 10741 10747 10754 10759 10764 10768 10771 10775 10778 10780 10783 10785 10787 10787 10785 10786 10787 10787 10786 10785 10783 10782 10780 10778 10776 10773 10771 10769 10767 10764 10760 10756 10752 10748 10744
10545 10559 10574 10594 10611 10623 10636 10657 10665 10684 10697 10703 10714 10723 10732 10739 10744 10751 10756 10760 10764 10768 10771 10773 10776 10778 10780 10778 10779 10779 10779 10779 10779 10777 10776 10774 10773 10769 10767 10765 10763 10760 10758 10756 10751 10746 10741 10736 10730
10523 10538 10557 10577 10592 10609 10628 10641 10653 10672 10683 10694 10705 10716 10723 10729 10735 10743 10748 10751 10756 10760 10763 10766 10768 10770 10770 10769 10770 10771 10771 10771 10770 10769 10768 10766 10763 10760 10758 10756 10754 10752 10749 10746 10742 10738 10731 10726 10718
10503 10520 10541 10559 10579 10597 10615 10629 10641 10660 10674 10683 10693 10703 10712 10720 10726 10732 10738 10742 10746 10752 10755 10756 10759 10761 10761 10761 10761 10762 10762 10762 10761 10760 10758 10755 10753 10751 10748 10746 10744 10742 10739 10736 10732 10727 10722 10716 10708
10490 10507 10528 10552 10569 10586 10601 10616 10626 10643 10658 10669 10681 10691 10700 10709 10716 10722 10729 10734 10739 10744 10746 10749 10751 10753 10753 10752 10752 10753 10753 10752 10752 10749 10746 10745 10742 10740 10737 10735 10733 10730 10727 10722 10718 10715 10711 10704 10696
10487 10506 10522 10539 10555 10568 10584 10599 10614 10629 10646 10660 10672 10683 10692 10701 10707 10714 10721 10726 10729 10733 10737 10740 10742 10743 10743 10741 10741 10742 10742 10742 10740 10738 10736 10733 10731 10727 10725 10723 10720 10717 10712 10708 10704 10700 10693 10687 10682
10480 10496 10513 10529 10547 10559 10569 10587 10613 10621 10634 10649 10663 10671 10680 10690 10698 10706 10710 10715 10719 10724 10729 10730 10732 10733 10733 10733 10733 10733 10732 10731 10730 10728 10725 10722 10718 10715 10712 10709 10707 10702 10698 10693 10687 10682 10676 10669 10663
10470 10487 10501 10519 10536 10545 10561 10580 10598 10612 10636 10641 10652 10661 10670 10681 10690 10694 10702 10706 10710 10713 10717 10719 10720 10722 10722 10723 10722 10723 10720 10720 10718 10716 10713 10709 10705 10701 10698 10695 10692 10686 10681 10675 10670 10666 10660 10653 10644
10462 10478 10492 10508 10523 10536 10554 10572 10590 10604 10616 10630 10641 10650 10661 10670 10679 10685 10691 10696 10699 10701 10704 10706 10710 10712 10714 10713 10711 10709 10708 10708 10706 10703 10699 10695 10690 10687 10684 10681 10676 10669 10664 10658 10653 10647 10641 10634 10627
10454 10469 10484 10497 10509 10528 10544 10557 10576 10590 10604 10620 10630 10639 10650 10660 10668 10675 10680 10685 10687 10690 10694 10696 10698 10700 10702 10701 10699 10697 10696 10696 10692 10689 10684 10680 10675 10673 10670 10664 10658 10652 10647 10641 10635 10629 10622 10614 10605
10448 10464 10476 10489 10502 10518 10533 10548 10565 10575 10594 10609 10619 10632 10640 10649 10656 10665 10670 10675 10676 10677 10683 10685 10686 10689 10688 10688 10687 10687 10685 10680 10678 10674 10668 10666 10661 10657 10651 10645 10640 10635 10630 10624 10617 10610 10600 10591 10584
10441 10455 10469 10483 10499 10514 10528 10540 10556 10572 10587 10601 10613 10623 10632 10641 10647 10653 10660 10666 10668 10668 10669 10667 10674 10677 10678 10676 10676 10672 10669 10667 10662 10657 10656 10651 10644 10639 10632 10627 10622 10617 10612 10604 10595 10587 10578 10569 10560
10439 10450 10465 10480 10495 10505 10519 10531 10551 10565 10580 10591 10602 10614 10623 10631 10637 10644 10650 10654 10656 10657 10660 10661 10662 10664 10667 10664 10660 10659 10654 10648 10644 10643 10638 10631 10625 10618 10614 10609 10604 10598 10591 10583 10574 10563 10555 10546 10535
10434 10449 10462 10475 10489 10502 10513 10527 10543 10555 10571 10583 10594 10604 10614 10622 10627 10631 10636 10640 10645 10647 10651 10653 10655 10656 10652 10647 10646 10643 10638 10632 10630 10623 10619 10614 10607 10601 10595 10589 10584 10576 10569 10559 10549 10540 10532 10521 10511